�������l�o���
Date,Time,MP-1(��Sv/h),MP-2(��Sv/h),MP-3(��Sv/h),MP-4(��Sv/h),MP-5(��Sv/h),MP-6(��Sv/h),MP-7(��Sv/h),MP-8(��Sv/h),����,����(m/s),���J
2016/12/26,00:00,1.086,1.819,1.185,2.065,1.419,0.563,1.030,0.958,���k��,5.3,��
2016/12/26,00:10,1.085,1.817,1.187,2.062,1.419,0.563,1.028,0.955,���k��,5.5,��
2016/12/26,00:20,1.086,1.817,1.186,2.064,1.421,0.562,1.030,0.956,���k��,4.9,��
2016/12/26,00:30,1.086,1.817,1.187,2.065,1.421,0.564,1.029,0.957,���k��,5.7,��
2016/12/26,00:40,1.085,1.819,1.186,2.064,1.418,0.561,1.029,0.957,���k��,3.3,��
2016/12/26,00:50,1.085,1.818,1.183,2.064,1.421,0.563,1.029,0.956,��,1.4,��
2016/12/26,01:00,1.086,1.819,1.185,2.063,1.420,0.562,1.030,0.957,��,1.1,��
2016/12/26,01:10,1.085,1.817,1.184,2.062,1.421,0.562,1.030,0.956,���k��,1.5,��
2016/12/26,01:20,1.085,1.821,1.185,2.063,1.418,0.561,1.031,0.956,�쐼,0.6,��
2016/12/26,01:30,1.084,1.818,1.185,2.065,1.419,0.561,1.029,0.956,��쐼,0.6,��
2016/12/26,01:40,1.085,1.819,1.185,2.063,1.421,0.561,1.028,0.957,-,CALM,��
2016/12/26,01:50,1.086,1.813,1.186,2.062,1.420,0.563,1.026,0.957,�쓌,0.9,��
2016/12/26,02:00,1.087,1.819,1.185,2.060,1.421,0.563,1.027,0.957,��쐼,0.8,��
2016/12/26,02:10,1.084,1.819,1.184,2.065,1.420,0.562,1.030,0.957,��,2.2,��
2016/12/26,02:20,1.085,1.814,1.183,2.062,1.420,0.563,1.029,0.955,��,2.0,��
2016/12/26,02:30,1.087,1.816,1.184,2.064,1.421,0.563,1.030,0.956,��쓌,1.7,��
2016/12/26,02:40,1.086,1.818,1.184,2.059,1.418,0.562,1.030,0.957,��,2.6,��
2016/12/26,02:50,1.086,1.819,1.185,2.063,1.418,0.563,1.028,0.956,��쓌,3.4,��
2016/12/26,03:00,1.087,1.817,1.183,2.062,1.420,0.562,1.030,0.957,��쓌,2.2,��
2016/12/26,03:10,1.087,1.819,1.184,2.060,1.417,0.564,1.030,0.957,��,1.2,��
2016/12/26,03:20,1.087,1.815,1.185,2.061,1.419,0.563,1.030,0.955,��쓌,1.4,��
2016/12/26,03:30,1.086,1.815,1.184,2.062,1.419,0.563,1.028,0.957,��쓌,1.7,��
2016/12/26,03:40,1.087,1.818,1.185,2.061,1.422,0.566,1.029,0.956,��쓌,1.4,��
2016/12/26,03:50,1.089,1.817,1.184,2.063,1.417,0.563,1.030,0.958,��쓌,1.2,��
2016/12/26,04:00,1.087,1.817,1.184,2.061,1.419,0.562,1.028,0.957,��쓌,0.8,��
2016/12/26,04:10,1.089,1.818,1.185,2.064,1.419,0.562,1.030,0.955,��쓌,0.9,��
2016/12/26,04:20,1.085,1.819,1.185,2.061,1.419,0.563,1.030,0.956,�쐼,0.8,��
2016/12/26,04:30,1.086,1.816,1.185,2.063,1.418,0.563,1.029,0.956,��쐼,1.1,��
2016/12/26,04:40,1.086,1.813,1.186,2.061,1.421,0.562,1.029,0.956,��,2.3,��
2016/12/26,04:50,1.086,1.816,1.182,2.060,1.416,0.563,1.028,0.956,��,2.5,��
2016/12/26,05:00,1.088,1.815,1.184,2.062,1.418,0.563,1.030,0.957,��,3.0,��
2016/12/26,05:10,1.085,1.817,1.183,2.059,1.419,0.563,1.029,0.954,��,2.6,��
2016/12/26,05:20,1.086,1.816,1.186,2.061,1.418,0.562,1.027,0.956,��,1.5,��
2016/12/26,05:30,1.088,1.818,1.185,2.064,1.417,0.563,1.029,0.956,�쐼,0.9,��
2016/12/26,05:40,1.084,1.814,1.183,2.062,1.418,0.562,1.029,0.956,�쐼,2.2,��
2016/12/26,05:50,1.087,1.816,1.184,2.060,1.419,0.563,1.031,0.958,�쐼,3.4,��
2016/12/26,06:00,1.086,1.819,1.186,2.060,1.419,0.563,1.029,0.956,�쐼,4.1,��
2016/12/26,06:10,1.086,1.814,1.183,2.059,1.419,0.564,1.031,0.957,��쐼,5.1,��
2016/12/26,06:20,1.088,1.812,1.185,2.060,1.416,0.563,1.030,0.955,��쐼,4.7,��
2016/12/26,06:30,1.088,1.816,1.183,2.064,1.418,0.563,1.031,0.957,��,3.4,��
2016/12/26,06:40,1.090,1.815,1.184,2.061,1.417,0.563,1.029,0.956,��,2.5,��
2016/12/26,06:50,1.087,1.814,1.186,2.061,1.416,0.562,1.030,0.955,��,1.7,��
2016/12/26,07:00,1.088,1.816,1.184,2.064,1.417,0.561,1.030,0.955,��,2.0,��
2016/12/26,07:10,1.088,1.815,1.185,2.061,1.418,0.563,1.030,0.958,��,1.2,��
2016/12/26,07:20,1.089,1.814,1.182,2.061,1.417,0.562,1.029,0.958,��,1.1,��
2016/12/26,07:30,1.089,1.814,1.184,2.063,1.418,0.561,1.031,0.958,��쐼,1.5,��
2016/12/26,07:40,1.088,1.816,1.182,2.064,1.418,0.563,1.029,0.958,�쓌,0.8,��
2016/12/26,07:50,1.090,1.811,1.183,2.064,1.418,0.563,1.030,0.957,��,1.1,��
2016/12/26,08:00,1.090,1.812,1.183,2.063,1.419,0.563,1.031,0.958,��쓌,0.8,��
2016/12/26,08:10,1.088,1.812,1.180,2.065,1.419,0.564,1.030,0.956,�쓌,1.7,��
2016/12/26,08:20,1.088,1.821,1.183,2.063,1.418,0.562,1.033,0.959,��쓌,1.2,��
2016/12/26,08:30,1.092,1.817,1.183,2.065,1.415,0.564,1.031,0.958,��,1.7,��
2016/12/26,08:40,1.090,1.823,1.184,2.065,1.418,0.563,1.031,0.958,��,2.0,��
2016/12/26,08:50,1.092,1.818,1.183,2.066,1.419,0.565,1.032,0.958,��,1.7,��
2016/12/26,09:00,1.091,1.818,1.185,2.064,1.421,0.564,1.031,0.960,��,1.4,��
2016/12/26,09:10,1.091,1.815,1.184,2.064,1.424,0.563,1.031,0.959,��,1.5,��
2016/12/26,09:20,1.091,1.815,1.185,2.069,1.422,0.564,1.034,0.958,��쓌,1.7,��
2016/12/26,09:30,1.090,1.811,1.185,2.066,1.421,0.564,1.034,0.959,��,2.3,��
2016/12/26,09:40,1.093,1.812,1.187,2.066,1.420,0.566,1.034,0.958,��,3.2,��
2016/12/26,09:50,1.094,1.812,1.188,2.069,1.424,0.567,1.034,0.959,��,3.7,��
2016/12/26,10:00,1.094,1.812,1.186,2.068,1.426,0.567,1.035,0.961,��,5.3,��
2016/12/26,10:10,1.094,1.815,1.185,2.068,1.428,0.566,1.033,0.958,��,5.3,��
2016/12/26,10:20,1.093,1.812,1.186,2.068,1.421,0.565,1.035,0.960,��,4.8,��
2016/12/26,10:30,1.094,1.814,1.187,2.073,1.425,0.565,1.034,0.960,��쓌,4.7,��
2016/12/26,10:40,1.092,1.814,1.184,2.067,1.428,0.568,1.035,0.959,��쓌,3.6,��
2016/12/26,10:50,1.092,1.814,1.186,2.070,1.425,0.568,1.034,0.961,��,3.3,��
2016/12/26,11:00,1.095,1.818,1.187,2.067,1.422,0.567,1.034,0.960,��쓌,3.5,��
2016/12/26,11:10,1.095,1.821,1.187,2.072,-,0.568,1.033,0.961,��쓌,6.3,��
2016/12/26,11:20,1.096,1.820,1.188,2.071,-,0.568,1.033,0.959,��쓌,6.2,��
2016/12/26,11:30,1.097,1.819,1.189,2.070,-,0.567,1.033,0.959,��쓌,6.8,��
2016/12/26,11:40,1.100,1.821,1.191,2.070,-,0.570,1.033,0.960,��쓌,5.1,��
2016/12/26,11:50,1.099,1.819,1.191,2.074,-,0.570,1.033,0.963,��쓌,5.4,��
2016/12/26,12:00,1.097,1.817,1.191,2.075,-,0.567,1.034,0.961,��쓌,4.3,��
2016/12/26,12:10,1.100,1.817,1.192,2.071,-,0.569,1.032,0.962,��쓌,4.5,��
2016/12/26,12:20,1.099,1.819,1.193,2.074,-,0.567,1.033,0.962,��쓌,6.2,��
2016/12/26,12:30,1.099,1.810,1.193,2.075,-,0.569,1.034,0.963,��쓌,6.4,��
2016/12/26,12:40,1.099,1.816,1.191,2.074,-,0.568,1.033,0.961,��쓌,7.0,��
2016/12/26,12:50,1.100,1.815,1.194,2.073,-,0.569,1.035,0.963,��쓌,8.3,��
2016/12/26,13:00,1.101,1.815,1.194,2.074,-,0.568,1.035,0.962,��쓌,6.5,��
2016/12/26,13:10,1.101,1.811,1.192,2.073,-,0.569,1.034,0.964,��쓌,8.2,��
2016/12/26,13:20,1.102,1.816,1.195,2.074,-,0.570,1.035,0.962,��쓌,7.1,��
2016/12/26,13:30,1.101,1.815,1.192,2.075,-,0.568,1.036,0.962,��쓌,7.8,��
2016/12/26,13:40,1.101,1.815,1.194,2.075,-,0.568,1.034,0.963,��,8.5,��
2016/12/26,13:50,1.102,1.813,1.195,2.078,-,0.569,1.034,0.961,��,8.4,��
2016/12/26,14:00,1.103,1.815,1.195,2.074,-,0.569,1.035,0.962,��쓌,8.4,��
2016/12/26,14:10,1.101,1.818,1.193,2.075,-,0.570,1.031,0.963,��,8.5,��
2016/12/26,14:20,1.103,1.825,1.193,2.076,-,0.570,1.031,0.961,��,8.1,��
2016/12/26,14:30,1.104,1.822,1.193,2.077,-,0.568,1.034,0.961,��,7.2,��
2016/12/26,14:40,1.102,1.823,1.191,2.074,-,0.571,1.037,0.963,��,8.1,��
2016/12/26,14:50,1.101,1.820,1.187,2.076,-,0.574,1.035,0.961,��,7.3,��
2016/12/26,15:00,1.100,1.822,1.188,2.078,-,0.571,1.035,0.962,��,7.8,��
2016/12/26,15:10,1.104,1.822,1.189,2.075,-,0.570,1.034,0.962,��,7.5,��
2016/12/26,15:20,1.103,1.824,1.189,2.074,-,0.571,1.036,0.963,��,7.0,��
2016/12/26,15:30,1.101,1.824,1.186,2.075,-,0.571,1.037,0.963,��,8.6,��
2016/12/26,15:40,1.098,1.826,1.190,2.075,-,0.570,1.035,0.964,��,7.5,��
2016/12/26,15:50,1.103,1.825,1.189,2.075,-,0.571,1.036,0.960,��,6.8,��
2016/12/26,16:00,1.100,1.825,1.189,2.076,-,0.571,1.034,0.962,��,7.0,��
2016/12/26,16:10,1.103,1.824,1.191,2.073,-,0.571,1.036,0.962,��,6.6,��
2016/12/26,16:20,1.102,1.825,1.191,2.074,-,0.570,1.037,0.962,��,6.2,��
2016/12/26,16:30,1.101,1.824,1.189,2.075,-,0.570,1.036,0.962,��,4.0,��
2016/12/26,16:40,1.101,1.823,1.187,2.076,-,0.571,1.036,0.963,-,CALM,��
2016/12/26,16:50,1.099,1.823,1.186,2.075,-,0.571,1.035,0.960,���k��,1.2,��
2016/12/26,17:00,1.098,1.822,1.188,2.075,-,0.572,1.035,0.960,���쐼,0.9,��
2016/12/26,17:10,1.098,1.823,1.185,2.075,1.430,0.570,1.035,0.961,���k��,1.2,��
2016/12/26,17:20,1.099,1.823,1.186,2.073,1.430,0.570,1.034,0.962,�k��,1.9,��
2016/12/26,17:30,1.097,1.823,1.186,2.073,1.431,0.570,1.034,0.960,�k��,1.7,��
2016/12/26,17:40,1.100,1.821,1.187,2.074,1.431,0.570,1.034,0.961,�k�k��,2.0,��
2016/12/26,17:50,1.098,1.821,1.185,2.074,1.432,0.569,1.036,0.962,�k,2.8,��
2016/12/26,18:00,1.099,1.820,1.191,2.073,1.432,0.571,1.036,0.962,�k,2.2,��
2016/12/26,18:10,1.099,1.823,1.188,2.073,1.432,0.568,1.035,0.961,�k,2.5,��
2016/12/26,18:20,1.099,1.824,1.188,2.073,1.428,0.570,1.034,0.961,�k�k��,1.4,��
2016/12/26,18:30,1.098,1.823,1.186,2.075,1.430,0.570,1.036,0.961,�k�k��,1.4,��
2016/12/26,18:40,1.100,1.822,1.187,2.075,1.427,0.568,1.036,0.962,�k�k��,1.1,��
2016/12/26,18:50,1.100,1.825,1.188,2.070,1.431,0.567,1.036,0.960,���k��,0.8,��
2016/12/26,19:00,1.101,1.824,1.187,2.076,1.432,0.571,1.036,0.962,�k�k��,1.4,��
2016/12/26,19:10,1.099,1.822,1.186,2.076,1.429,0.570,1.035,0.962,�k�k��,1.7,��
2016/12/26,19:20,1.099,1.823,1.187,2.076,1.431,0.570,1.037,0.960,�k�k��,1.4,��
2016/12/26,19:30,1.100,1.821,1.187,2.073,1.433,0.570,1.035,0.960,-,CALM,��
2016/12/26,19:40,1.098,1.824,1.187,2.074,1.430,0.569,1.036,0.961,-,CALM,��
2016/12/26,19:50,1.099,1.823,1.185,2.074,1.430,0.569,1.036,0.961,�쐼,1.2,��
2016/12/26,20:00,1.098,1.823,1.186,2.074,1.429,0.571,1.036,0.960,��쐼,0.6,��
2016/12/26,20:10,1.099,1.823,1.189,2.075,1.430,0.569,1.038,0.961,��쐼,1.2,��
2016/12/26,20:20,1.100,1.825,1.185,2.074,1.431,0.571,1.037,0.960,��쐼,3.2,��
2016/12/26,20:30,1.099,1.826,1.189,2.075,1.430,0.569,1.037,0.960,�쐼,3.8,��
2016/12/26,20:40,1.099,1.823,1.188,2.072,1.431,0.570,1.037,0.962,�쐼,4.3,��
2016/12/26,20:50,1.098,1.825,1.188,2.072,1.430,0.570,1.036,0.961,�쐼,4.5,��
2016/12/26,21:00,1.100,1.823,1.188,2.075,1.432,0.568,1.037,0.961,��쐼,4.8,��
2016/12/26,21:10,1.102,1.821,1.187,2.076,1.431,0.569,1.036,0.961,��쐼,5.5,��
2016/12/26,21:20,1.100,1.824,1.190,2.076,1.431,0.570,1.037,0.961,��쐼,6.3,��
2016/12/26,21:30,1.100,1.821,1.191,2.076,1.430,0.573,1.038,0.962,��쐼,5.8,��
2016/12/26,21:40,1.097,1.820,1.187,2.074,1.432,0.571,1.037,0.961,��쐼,4.8,��
2016/12/26,21:50,1.103,1.824,1.188,2.075,1.429,0.570,1.037,0.960,��,4.5,��
2016/12/26,22:00,1.101,1.825,1.189,2.076,1.432,0.571,1.038,0.961,��,3.9,��
2016/12/26,22:10,1.101,1.828,1.186,2.073,1.433,0.570,1.038,0.962,��쓌,1.5,��
2016/12/26,22:20,1.103,1.824,1.190,2.075,1.432,0.570,1.037,0.962,��쓌,2.2,��
2016/12/26,22:30,1.099,1.823,1.187,2.077,1.431,0.571,1.036,0.960,��쐼,2.2,��
2016/12/26,22:40,1.101,1.821,1.190,2.075,1.431,0.570,1.037,0.962,�쐼,1.2,��
2016/12/26,22:50,1.102,1.824,1.188,2.072,1.434,0.570,1.036,0.961,�쐼,1.2,��
2016/12/26,23:00,1.102,1.825,1.188,2.077,1.431,0.571,1.037,0.962,�쐼,1.1,��
2016/12/26,23:10,1.102,1.825,1.188,2.073,1.433,0.572,1.036,0.962,��쐼,1.4,��
2016/12/26,23:20,1.103,1.822,1.189,2.076,1.431,0.570,1.038,0.962,�쐼,2.9,��
2016/12/26,23:30,1.102,1.822,1.188,2.076,1.431,0.570,1.038,0.963,�쐼,2.9,��
2016/12/26,23:40,1.102,1.823,1.189,2.073,1.428,0.569,1.037,0.962,�쐼,1.2,��
2016/12/26,23:50,1.101,1.823,1.189,2.075,1.433,0.571,1.038,0.961,���쐼,1.1,��
